GW3382 Weather Reports


time (UTC)temp
C
wind
direction
speed
KPH
gust
KPH
rain 1hr
cm
rain 24hr
cm
rain mn
cm
humidity
%
barometer
mb
20240723202247 30 229 4.8 16.1 0.00 0.00 0.00 86 1022.3
20240723201747 30 193 9.7 14.5 0.00 0.00 0.00 88 1022.6
20240723201246 30 244 8.0 16.1 0.00 0.00 0.00 87 1022.6
20240723200745 30 224 4.8 14.5 0.00 0.00 0.00 86 1022.6
20240723200243 30 224 9.7 14.5 0.00 0.00 0.00 87 1023.0
20240723195742 29 250 6.4 14.5 0.00 0.00 0.00 88 1023.0
20240723195240 29 241 4.8 14.5 0.00 0.00 0.00 87 1023.0
20240723194739 30 235 6.4 12.9 0.00 0.00 0.00 85 1023.0
20240723194237 30 213 8.0 12.9 0.00 0.00 0.00 84 1023.0
20240723193735 30 218 12.9 14.5 0.00 0.00 0.00 85 1022.6
20240723193233 30 243 14.5 14.5 0.00 0.00 0.00 86 1023.0
20240723192731 30 220 4.8 14.5 0.00 0.00 0.00 85 1023.0
20240723192230 29 219 11.3 12.9 0.00 0.00 0.00 85 1023.0
20240723191729 30 202 4.8 14.5 0.00 0.00 0.00 85 1023.3
20240723191229 30 231 12.9 12.9 0.00 0.00 0.00 83 1023.0
20240723190727 30 230 9.7 14.5 0.00 0.00 0.00 82 1023.0
20240723190226 30 223 16.1 16.1 0.00 0.00 0.00 82 1023.3
20240723185725 30 217 9.7 16.1 0.00 0.00 0.00 83 1023.0
20240723185223 30 224 11.3 14.5 0.00 0.00 0.00 83 1023.3
20240723184721 30 230 9.7 16.1 0.00 0.00 0.00 83 1023.0
20240723184220 28 225 11.3 14.5 0.00 0.00 0.00 84 1022.6
20240723183719 28 195 12.9 14.5 0.00 0.00 0.00 88 1023.0
20240723183218 28 175 12.9 14.5 0.00 0.00 0.00 88 1023.0
20240723182716 28 191 12.9 14.5 0.00 0.00 0.00 87 1023.0
20240723182216 28 187 11.3 14.5 0.00 0.00 0.00 87 1023.0
20240723181715 28 168 11.3 17.7 0.00 0.00 0.00 90 1023.3
20240723181213 28 176 12.9 16.1 0.00 0.00 0.00 89 1023.0
20240723180710 28 173 11.3 16.1 0.00 0.00 0.00 89 1023.3
20240723180210 28 180 12.9 14.5 0.00 0.00 0.00 90 1023.3
20240723175705 28 176 14.5 16.1 0.00 0.00 0.00 89 1023.3
20240723175204 28 174 16.1 16.1 0.00 0.00 0.00 88 1023.3
20240723174702 29 201 11.3 16.1 0.00 0.00 0.00 83 1023.3
20240723174200 29 193 9.7 14.5 0.00 0.00 0.00 82 1023.6
20240723173700 29 230 12.9 16.1 0.00 0.00 0.00 84 1023.6
20240723173158 29 220 8.0 16.1 0.00 0.00 0.00 85 1023.6
20240723172656 30 213 8.0 16.1 0.00 0.00 0.00 86 1023.6
20240723172155 29 223 9.7 16.1 0.00 0.00 0.00 87 1023.6
20240723171655 29 231 11.3 17.7 0.00 0.00 0.00 86 1024.0
20240723171153 30 238 4.8 16.1 0.00 0.00 0.00 87 1023.6
20240723170651 29 235 4.8 17.7 0.00 0.00 0.00 87 1024.0
20240723170150 29 224 16.1 16.1 0.00 0.00 0.00 86 1023.6
20240723165648 29 223 11.3 17.7 0.00 0.00 0.00 85 1023.6
20240723165146 30 220 4.8 16.1 0.00 0.00 0.00 84 1024.0
20240723164643 29 213 14.5 16.1 0.00 0.00 0.00 82 1023.6
20240723164139 29 211 16.1 16.1 0.00 0.00 0.00 83 1023.6
20240723163637 30 218 14.5 20.9 0.00 0.00 0.00 83 1024.0
20240723163135 29 218 16.1 17.7 0.00 0.00 0.00 81 1024.0
20240723162632 29 215 14.5 19.3 0.00 0.00 0.00 84 1024.3
20240723162130 29 218 14.5 17.7 0.00 0.00 0.00 82 1024.0
20240723161628 29 204 14.5 17.7 0.00 0.00 0.00 81 1024.0
20240723161128 29 200 12.9 16.1 0.00 0.00 0.00 81 1024.3
20240723160625 29 206 12.9 17.7 0.00 0.00 0.00 81 1024.3
20240723160126 28 197 11.3 16.1 0.00 0.00 0.00 83 1024.0
20240723155623 29 208 11.3 16.1 0.00 0.00 0.00 85 1024.0
20240723155121 28 211 11.3 16.1 0.00 0.00 0.00 85 1024.3
20240723154619 29 213 12.9 14.5 0.00 0.00 0.00 85 1024.3
20240723154117 29 218 4.8 16.1 0.00 0.00 0.00 87 1024.0
20240723153616 29 215 14.5 16.1 0.00 0.00 0.00 88 1024.3
20240723153115 28 227 8.0 16.1 0.00 0.00 0.00 89 1024.0
20240723152613 29 205 11.3 16.1 0.00 0.00 0.00 88 1024.3
20240723152111 28 222 12.9 16.1 0.00 0.00 0.00 87 1024.0
20240723151609 28 218 16.1 16.1 0.00 0.00 0.00 87 1024.3
20240723151108 28 213 11.3 14.5 0.00 0.00 0.00 89 1024.0
20240723150607 28 210 8.0 14.5 0.00 0.00 0.00 89 1024.0
20240723150106 28 218 6.4 17.7 0.00 0.00 0.00 90 1024.0
20240723145603 28 219 9.7 16.1 0.00 0.00 0.00 90 1023.6
20240723145102 28 226 11.3 14.5 0.00 0.00 0.00 91 1023.6
20240723144601 28 213 12.9 16.1 0.00 0.00 0.00 90 1023.6
20240723144100 28 220 11.3 16.1 0.00 0.00 0.00 90 1024.0
20240723143558 28 228 6.4 16.1 0.00 0.00 0.00 90 1023.6
20240723143058 28 228 8.0 12.9 0.00 0.00 0.00 90 1023.6
20240723142556 28 219 12.9 14.5 0.00 0.00 0.00 89 1024.0
20240723142055 28 226 8.0 16.1 0.00 0.00 0.00 91 1023.6
20240723141554 28 229 9.7 14.5 0.00 0.00 0.00 91 1023.6
20240723141053 28 229 14.5 14.5 0.00 0.00 0.00 90 1023.6
20240723140552 28 215 4.8 16.1 0.00 0.00 0.00 91 1023.3
20240723140048 28 219 9.7 14.5 0.00 0.00 0.00 91 1023.3
20240723135547 28 228 4.8 14.5 0.00 0.00 0.00 91 1023.6
20240723135044 28 230 8.0 17.7 0.00 0.00 0.00 91 1023.3
20240723134544 28 220 8.0 14.5 0.00 0.00 0.00 91 1023.6
20240723134043 28 235 4.8 14.5 0.00 0.00 0.00 91 1023.6
20240723133543 28 217 6.4 16.1 0.00 0.00 0.00 91 1023.6
20240723133042 28 232 11.3 16.1 0.00 0.00 0.00 92 1023.6
20240723132541 28 227 14.5 16.1 0.00 0.00 0.00 92 1023.6
20240723132038 28 214 8.0 14.5 0.00 0.00 0.00 92 1024.0
20240723131535 28 222 16.1 16.1 0.00 0.00 0.00 92 1023.6
20240723131033 28 226 6.4 14.5 0.00 0.00 0.00 93 1023.6
20240723130530 28 219 4.8 16.1 0.00 0.00 0.00 93 1023.6
20240723130027 28 227 12.9 17.7 0.00 0.00 0.00 92 1023.6
20240723125525 28 220 9.7 16.1 0.00 0.00 0.00 92 1023.6
20240723125023 28 221 8.0 14.5 0.00 0.00 0.00 93 1023.6
20240723124519 28 213 11.3 17.7 0.00 0.00 0.00 93 1023.6
20240723124019 28 218 11.3 17.7 0.00 0.00 0.00 93 1023.6
20240723123517 28 220 11.3 17.7 0.00 0.00 0.00 93 1023.6
20240723123017 27 219 12.9 17.7 0.00 0.00 0.00 93 1023.6
20240723122513 28 226 11.3 12.9 0.00 0.00 0.00 93 1023.6
20240723122012 27 214 12.9 17.7 0.00 0.00 0.00 94 1023.6
20240723121510 27 221 11.3 16.1 0.00 0.00 0.00 94 1023.6
20240723121009 27 214 12.9 14.5 0.00 0.00 0.00 94 1023.6
20240723120509 28 218 6.4 16.1 0.00 0.00 0.00 94 1023.6
20240723120007 27 219 16.1 17.7 0.00 0.00 0.00 94 1023.3
20240723115505 27 215 11.3 14.5 0.00 0.00 0.00 94 1023.6
20240723115003 27 216 11.3 14.5 0.00 0.00 0.00 94 1023.3
20240723114500 27 238 6.4 14.5 0.00 0.00 0.00 94 1023.3
20240723113958 27 220 8.0 14.5 0.00 0.00 0.00 94 1023.3
20240723113457 27 241 4.8 14.5 0.00 0.00 0.00 95 1023.3
20240723112956 27 229 4.8 12.9 0.00 0.00 0.00 95 1023.3
20240723112454 27 222 6.4 14.5 0.00 0.00 0.00 95 1023.3
20240723111950 27 221 9.7 16.1 0.00 0.00 0.00 95 1023.0
20240723111448 27 238 4.8 12.9 0.00 0.00 0.00 95 1023.3
20240723110946 27 218 11.3 14.5 0.00 0.00 0.00 95 1023.0
20240723110445 27 224 11.3 12.9 0.00 0.00 0.00 95 1023.0
20240723105943 27 225 12.9 14.5 0.00 0.00 0.00 95 1023.0
20240723105442 27 218 11.3 14.5 0.00 0.00 0.00 95 1023.0
20240723104941 27 241 8.0 14.5 0.00 0.00 0.00 95 1023.0
20240723104440 27 217 4.8 14.5 0.00 0.00 0.00 95 1023.0
20240723103938 27 225 12.9 16.1 0.00 0.00 0.00 95 1022.6
20240723103437 27 220 14.5 16.1 0.00 0.00 0.00 95 1023.0
20240723102936 27 220 11.3 16.1 0.00 0.00 0.00 95 1022.6
20240723102434 27 216 9.7 14.5 0.00 0.00 0.00 95 1022.6
20240723101933 27 215 16.1 16.1 0.00 0.00 0.00 95 1022.6
20240723101431 27 217 9.7 17.7 0.00 0.00 0.00 95 1022.3
20240723100931 27 223 11.3 16.1 0.00 0.00 0.00 95 1023.0
20240723100429 27 218 12.9 16.1 0.00 0.00 0.00 94 1022.3
20240723095925 27 223 14.5 16.1 0.00 0.00 0.00 94 1023.0
20240723095424 27 224 19.3 19.3 0.00 0.00 0.00 94 1022.3
20240723094924 27 217 16.1 19.3 0.00 0.00 0.00 94 1022.3
20240723094423 27 219 17.7 20.9 0.00 0.00 0.00 94 1022.3
20240723093921 27 224 11.3 17.7 0.00 0.00 0.00 95 1022.3
20240723093420 27 223 16.1 19.3 0.00 0.00 0.00 96 1022.3
20240723092920 27 211 6.4 12.9 0.00 0.00 0.00 96 1022.3
20240723092418 27 216 11.3 14.5 0.00 0.00 0.00 96 1022.3
20240723091916 27 206 11.3 14.5 0.00 0.00 0.00 96 1022.3
20240723091415 27 201 14.5 14.5 0.00 0.00 0.00 96 1022.3
20240723090914 27 217 11.3 16.1 0.00 0.00 0.00 95 1021.9
20240723090412 27 217 12.9 19.3 0.00 0.00 0.00 95 1022.3
20240723085911 27 228 8.0 17.7 0.00 0.00 0.00 95 1021.9
20240723085409 27 229 11.3 14.5 0.00 0.00 0.00 95 1021.9
20240723084905 27 206 11.3 14.5 0.00 0.00 0.00 95 1021.9
20240723084403 27 212 8.0 19.3 0.00 0.00 0.00 94 1021.6
20240723083902 27 222 12.9 22.5 0.00 0.00 0.00 94 1021.6
20240723083359 27 221 14.5 22.5 0.00 0.00 0.00 94 1021.9
20240723082856 27 213 19.3 19.3 0.00 0.00 0.00 94 1022.3
20240723082354 27 232 17.7 25.7 0.00 0.00 0.00 94 1021.9
20240723081853 27 225 11.3 20.9 0.00 0.00 0.00 94 1021.6
20240723081352 27 239 11.3 20.9 0.00 0.00 0.00 94 1021.6
20240723080849 27 215 19.3 20.9 0.00 0.00 0.00 94 1021.9
20240723080347 27 237 8.0 22.5 0.00 0.00 0.00 94 1021.9
20240723075846 27 214 12.9 24.1 0.00 0.00 0.00 94 1021.6
20240723075346 27 227 14.5 20.9 0.00 0.00 0.00 93 1021.6
20240723074845 27 215 16.1 24.1 0.00 0.00 0.00 94 1021.9
20240723074344 27 219 20.9 27.4 0.00 0.00 0.00 94 1021.6
20240723073843 27 227 14.5 20.9 0.00 0.00 0.00 94 1021.9
20240723073341 27 220 19.3 24.1 0.00 0.00 0.00 94 1021.6
20240723072840 27 222 22.5 22.5 0.00 0.00 0.00 94 1021.6
20240723072338 27 231 20.9 24.1 0.00 0.00 0.00 94 1021.6
20240723071836 27 209 12.9 22.5 0.00 0.00 0.00 94 1021.6
20240723071333 27 223 19.3 22.5 0.00 0.00 0.00 94 1021.6
20240723070826 27 229 14.5 25.7 0.00 0.00 0.00 94 1021.6
20240723070326 27 219 19.3 25.7 0.00 0.00 0.00 93 1021.6
20240723065818 27 218 22.5 24.1 0.00 0.00 0.00 93 1021.9
20240723065256 27 233 14.5 22.5 0.00 0.00 0.00 94 1021.9
20240723064755 27 221 6.4 24.1 0.00 0.00 0.00 94 1021.9
20240723064254 27 220 11.3 20.9 0.00 0.00 0.00 93 1021.9
20240723063751 27 217 4.8 22.5 0.00 0.00 0.00 94 1021.6
20240723063250 27 225 17.7 22.5 0.00 0.00 0.00 94 1021.9
20240723062748 27 211 6.4 25.7 0.00 0.00 0.00 94 1021.6
20240723062248 27 221 8.0 22.5 0.00 0.00 0.00 94 1021.9
20240723061747 27 220 14.5 25.7 0.00 0.00 0.00 93 1021.9
20240723061246 27 228 20.9 20.9 0.00 0.00 0.00 94 1021.9
20240723060745 27 220 14.5 22.5 0.00 0.00 0.00 94 1021.9
20240723060243 27 220 11.3 24.1 0.00 0.00 0.00 94 1021.9
20240723055741 27 237 9.7 24.1 0.00 0.00 0.00 94 1021.6
20240723055240 27 222 4.8 24.1 0.00 0.00 0.00 93 1021.9
20240723054738 27 219 6.4 20.9 0.00 0.00 0.00 93 1022.3
20240723054238 27 229 12.9 24.1 0.00 0.00 0.00 93 1022.3
20240723053736 27 253 16.1 25.7 0.00 0.00 0.00 93 1021.9
20240723053236 27 254 8.0 25.7 0.00 0.00 0.00 93 1022.3
20240723052734 27 232 11.3 22.5 0.00 0.00 0.00 93 1022.3
20240723052232 27 220 17.7 25.7 0.00 0.00 0.00 93 1022.3
20240723051731 27 226 19.3 24.1 0.00 0.00 0.00 94 1022.3
20240723051205 27 231 14.5 20.9 0.00 0.00 0.00 94 1022.3
20240723050703 27 223 19.3 22.5 0.00 0.00 0.00 94 1022.6
20240723050201 27 229 16.1 22.5 0.00 0.00 0.00 94 1022.3
20240723045654 27 226 8.0 24.1 0.00 0.00 0.00 94 1022.3
20240723045152 27 228 17.7 20.9 0.00 0.00 0.00 94 1022.6
20240723044651 27 229 19.3 22.5 0.00 0.00 0.00 94 1022.6
20240723044150 27 223 19.3 20.9 0.00 0.00 0.00 94 1022.6
20240723043650 27 234 17.7 20.9 0.00 0.00 0.00 94 1022.6
20240723043149 27 221 6.4 22.5 0.00 0.00 0.00 94 1022.6
20240723042641 27 235 19.3 25.7 0.00 0.00 0.00 94 1022.6
20240723042140 27 221 19.3 22.5 0.00 0.00 0.00 93 1022.6
20240723041639 28 217 11.3 22.5 0.00 0.00 0.00 93 1022.3
20240723041137 27 221 11.3 20.9 0.00 0.00 0.00 93 1022.6
20240723040635 27 224 17.7 22.5 0.00 0.00 0.00 93 1022.6
20240723040133 27 213 20.9 20.9 0.00 0.00 0.00 93 1023.0
20240723035632 28 221 20.9 20.9 0.00 0.00 0.00 93 1023.0
20240723035132 27 230 16.1 22.5 0.00 0.00 0.00 93 1023.0
20240723034631 27 216 11.3 17.7 0.00 0.00 0.00 93 1022.6
20240723034129 27 228 19.3 20.9 0.00 0.00 0.00 93 1022.3
20240723033627 27 212 20.9 22.5 0.00 0.00 0.00 93 1022.3
20240723033126 27 227 17.7 22.5 0.00 0.00 0.00 94 1022.3
20240723032624 28 221 12.9 22.5 0.00 0.00 0.00 93 1022.3
20240723032122 27 225 17.7 24.1 0.00 0.00 0.00 93 1022.3
20240723031621 27 238 6.4 20.9 0.00 0.00 0.00 93 1021.9
20240723031120 27 223 8.0 20.9 0.00 0.00 0.00 93 1022.3
20240723030619 27 212 11.3 25.7 0.00 0.00 0.00 93 1022.3
20240723030117 27 225 22.5 29.0 0.00 0.00 0.00 93 1022.3
20240723025616 27 231 17.7 24.1 0.00 0.00 0.00 93 1022.3
20240723025116 27 223 17.7 24.1 0.00 0.00 0.00 94 1022.3
20240723024615 27 223 20.9 24.1 0.00 0.00 0.00 94 1022.3
20240723024113 28 235 9.7 20.9 0.00 0.00 0.00 94 1022.3
20240723023611 27 229 12.9 22.5 0.00 0.00 0.00 94 1022.3
20240723023110 28 228 17.7 25.7 0.00 0.00 0.00 93 1022.3
20240723022608 27 227 17.7 22.5 0.00 0.00 0.00 93 1021.9
20240723022107 28 220 6.4 22.5 0.00 0.00 0.00 93 1022.3
20240723021605 28 233 4.8 19.3 0.00 0.00 0.00 93 1021.9
20240723021103 27 221 17.7 19.3 0.00 0.00 0.00 93 1021.9
20240723020602 27 224 20.9 20.9 0.00 0.00 0.00 93 1021.9
20240723020101 27 219 14.5 22.5 0.00 0.00 0.00 93 1021.9
20240723015559 27 219 11.3 24.1 0.00 0.00 0.00 94 1021.9
20240723015059 27 224 19.3 20.9 0.00 0.00 0.00 94 1021.9
20240723014558 27 229 6.4 20.9 0.00 0.00 0.00 94 1021.9
20240723014056 27 215 14.5 17.7 0.00 0.00 0.00 94 1021.6
20240723013555 27 226 14.5 24.1 0.00 0.00 0.00 94 1021.6
20240723013053 27 219 14.5 19.3 0.00 0.00 0.00 94 1021.6
20240723012552 28 211 14.5 19.3 0.00 0.00 0.00 94 1021.6
20240723012050 27 210 12.9 19.3 0.00 0.00 0.00 93 1021.3
20240723011549 27 214 19.3 19.3 0.00 0.00 0.00 93 1021.3
20240723011048 27 210 19.3 22.5 0.00 0.00 0.00 92 1020.9
20240723010547 27 215 20.9 24.1 0.00 0.00 0.00 93 1021.3
20240723010046 27 209 19.3 22.5 0.00 0.00 0.00 93 1021.3
20240723005540 27 219 20.9 24.1 0.00 0.00 0.00 93 1020.9
20240723005039 27 220 12.9 24.1 0.00 0.00 0.00 93 1021.3
20240723004538 27 210 12.9 20.9 0.00 0.00 0.00 93 1021.3
20240723004037 27 219 17.7 20.9 0.00 0.00 0.00 93 1020.9
20240723003535 27 219 14.5 22.5 0.00 0.00 0.00 92 1020.9
20240723003035 27 203 14.5 20.9 0.00 0.00 0.00 92 1020.9
20240723002530 27 233 8.0 19.3 0.00 0.00 0.00 92 1020.9
20240723002030 28 207 16.1 17.7 0.00 0.00 0.00 92 1020.9
20240723001526 27 213 14.5 19.3 0.00 0.00 0.00 92 1020.6
20240723001024 27 212 14.5 17.7 0.00 0.00 0.00 92 1020.6
20240723000523 27 205 12.9 16.1 0.00 0.00 0.00 92 1020.6
20240723000021 27 213 14.5 17.7 0.00 0.00 0.00 92 1020.6
20240722235520 28 225 6.4 19.3 0.00 0.00 0.00 92 1020.6
20240722235020 27 214 14.5 19.3 0.00 0.00 0.00 92 1020.6
20240722234518 27 216 12.9 17.7 0.00 0.00 0.00 92 1020.9
20240722234017 27 209 12.9 17.7 0.00 0.00 0.00 91 1020.6
20240722233517 27 209 14.5 19.3 0.00 0.00 0.00 91 1020.6
20240722233016 27 204 16.1 19.3 0.00 0.00 0.00 90 1020.6
20240722232515 28 211 17.7 19.3 0.00 0.00 0.00 90 1020.6
20240722232014 27 209 9.7 19.3 0.00 0.00 0.00 90 1020.6
20240722231512 28 219 12.9 19.3 0.00 0.00 0.00 90 1020.9
20240722231012 27 237 16.1 19.3 0.00 0.00 0.00 90 1020.6
20240722230510 28 199 17.7 19.3 0.00 0.00 0.00 89 1020.6
20240722230009 27 214 11.3 19.3 0.00 0.00 0.00 89 1020.6
20240722225508 28 208 8.0 19.3 0.00 0.00 0.00 90 1020.9
20240722225006 28 204 16.1 20.9 0.00 0.00 0.00 88 1020.9
20240722224504 28 207 12.9 20.9 0.00 0.00 0.00 89 1020.6
20240722224002 28 208 14.5 20.9 0.00 0.00 0.00 88 1020.6
20240722223457 -17 210 14.5 20.9 0.00 0.00 0.00 1020.6
20240722222956 -17 212 19.3 19.3 0.00 0.00 0.00 1020.2
20240722222455 28 207 20.9 22.5 0.00 0.00 0.00 87 1020.6
20240722221955 28 212 14.5 20.9 0.00 0.00 0.00 87 1020.2
20240722221452 -17 212 14.5 19.3 0.00 0.00 0.00 1020.2
20240722220950 -17 212 17.7 22.5 0.00 0.00 0.00 1020.2
20240722220448 28 216 17.7 22.5 0.00 0.00 0.00 86 1019.9
20240722215948 28 201 12.9 22.5 0.00 0.00 0.00 86 1019.9
20240722215444 28 214 17.7 22.5 0.00 0.00 0.00 85 1019.9
20240722214943 28 210 17.7 20.9 0.00 0.00 0.00 86 1020.2
20240722214441 28 220 16.1 20.9 0.00 0.00 0.00 87 1019.9
20240722213940 27 203 11.3 20.9 0.00 0.00 0.00 87 1019.9
20240722213438 27 219 16.1 20.9 0.00 0.00 0.00 87 1019.6
20240722212935 27 208 16.1 20.9 0.00 0.00 0.00 86 1020.2
20240722212435 28 218 19.3 20.9 0.00 0.00 0.00 87 1019.9
20240722211931 27 209 17.7 22.5 0.00 0.00 0.00 87 1020.2
20240722211430 27 212 12.9 20.9 0.00 0.00 0.00 88 1019.9
20240722210927 27 213 11.3 24.1 0.00 0.00 0.00 87 1019.9
20240722210427 27 210 20.9 20.9 0.00 0.00 0.00 87 1020.2
20240722205926 27 229 17.7 20.9 0.00 0.00 0.00 87 1020.2
20240722205423 27 209 12.9 20.9 0.00 0.00 0.00 87 1020.2
20240722204921 27 212 14.5 20.9 0.00 0.00 0.00 87 1019.9
20240722204419 27 211 9.7 20.9 0.00 0.00 0.00 87 1020.2
20240722203917 27 202 8.0 24.1 0.00 0.00 0.00 87 1020.2
20240722203416 27 208 16.1 22.5 0.00 0.00 0.00 88 1020.2
20240722202912 27 223 17.7 22.5 0.00 0.00 0.00 88 1020.2